Time,TemperatureF,DewpointF,PressureIn,WindDirection,WindDirectionDegrees,WindSpeedMPH,WindSpeedGustMPH,Humidity,HourlyPrecipIn,Conditions,Clouds,dailyrainin,SoftwareType,DateUTC
2013-07-15 00:02:00,84.2,57.9,29.97,NNW,329,11.0,14.0,41,0.00,,,0.19,meteohub,2013-07-15 06:02:00,
2013-07-15 00:07:00,84.2,57.9,29.97,ENE,67,10.0,20.0,41,0.00,,,0.19,meteohub,2013-07-15 06:07:00,
2013-07-15 00:12:00,84.2,57.9,29.98,NE,34,17.0,20.0,41,0.00,,,0.19,meteohub,2013-07-15 06:12:00,
2013-07-15 00:17:00,84.0,57.0,29.98,NE,49,14.0,21.0,40,0.00,,,0.19,meteohub,2013-07-15 06:17:00,
2013-07-15 00:22:00,83.7,56.8,29.98,NE,46,8.0,22.0,40,0.00,,,0.19,meteohub,2013-07-15 06:22:00,
2013-07-15 00:28:00,83.3,55.8,29.99,ENE,70,14.0,24.0,39,0.00,,,0.19,meteohub,2013-07-15 06:28:00,
2013-07-15 00:34:00,82.9,56.1,29.99,NNE,32,13.0,24.0,40,0.00,,,0.19,meteohub,2013-07-15 06:34:00,
2013-07-15 00:39:00,82.6,57.2,30.00,NE,36,12.0,24.0,42,0.00,,,0.19,meteohub,2013-07-15 06:39:00,
2013-07-15 00:45:00,82.2,57.6,30.00,NE,34,7.0,24.0,43,0.00,,,0.19,meteohub,2013-07-15 06:45:00,
2013-07-15 00:51:00,81.7,58.3,30.00,NNE,32,13.0,24.0,45,0.00,,,0.19,meteohub,2013-07-15 06:51:00,
2013-07-15 00:57:00,81.1,57.7,30.00,NE,44,14.0,19.0,45,0.00,,,0.19,meteohub,2013-07-15 06:57:00,
2013-07-15 01:02:00,81.1,57.7,29.99,NE,55,7.0,18.0,45,0.00,,,0.19,meteohub,2013-07-15 07:02:00,
2013-07-15 01:07:00,81.1,57.2,29.99,ENE,73,15.0,18.0,44,0.00,,,0.00,meteohub,2013-07-15 07:07:00,
2013-07-15 01:13:00,81.5,56.8,29.99,ENE,72,12.0,24.0,43,0.00,,,0.00,meteohub,2013-07-15 07:13:00,
2013-07-15 01:18:00,81.3,56.7,29.99,ENE,57,16.0,24.0,43,0.00,,,0.00,meteohub,2013-07-15 07:18:00,
2013-07-15 01:24:00,81.0,57.0,29.99,ENE,67,7.0,24.0,44,0.00,,,0.00,meteohub,2013-07-15 07:24:00,
2013-07-15 01:30:00,81.0,56.3,29.99,ENE,67,8.0,17.0,43,0.00,,,0.00,meteohub,2013-07-15 07:30:00,
2013-07-15 01:36:00,81.0,57.0,30.00,NE,39,10.0,15.0,44,0.00,,,0.00,meteohub,2013-07-15 07:36:00,
2013-07-15 01:42:00,81.0,57.0,30.00,East,81,13.0,15.0,44,0.00,,,0.00,meteohub,2013-07-15 07:42:00,
2013-07-15 01:47:00,80.6,57.4,30.00,East,82,18.0,19.0,45,0.00,,,0.00,meteohub,2013-07-15 07:47:00,
2013-07-15 01:52:00,80.4,56.5,30.00,ENE,69,9.0,22.0,44,0.00,,,0.00,meteohub,2013-07-15 07:52:00,
2013-07-15 01:57:00,80.4,57.2,30.00,ENE,71,3.0,22.0,45,0.00,,,0.00,meteohub,2013-07-15 07:57:00,
2013-07-15 02:02:00,80.2,57.6,30.00,East,95,13.0,22.0,46,0.00,,,0.00,meteohub,2013-07-15 08:02:00,
2013-07-15 02:07:00,79.9,57.9,30.00,East,80,9.0,19.0,47,0.00,,,0.00,meteohub,2013-07-15 08:07:00,
2013-07-15 02:12:00,79.9,57.9,30.00,NE,48,10.0,19.0,47,0.00,,,0.00,meteohub,2013-07-15 08:12:00,
2013-07-15 02:17:00,79.7,57.7,30.00,East,89,8.0,19.0,47,0.00,,,0.00,meteohub,2013-07-15 08:17:00,
2013-07-15 02:22:00,79.5,58.1,30.00,NNW,345,4.0,15.0,48,0.00,,,0.00,meteohub,2013-07-15 08:22:00,
2013-07-15 02:27:00,79.3,58.5,30.00,NNE,16,6.0,12.0,49,0.00,,,0.00,meteohub,2013-07-15 08:27:00,
2013-07-15 02:32:00,79.2,57.7,30.00,NNE,33,7.0,11.0,48,0.00,,,0.00,meteohub,2013-07-15 08:32:00,
2013-07-15 02:37:00,79.3,57.9,30.00,NE,37,3.0,9.0,48,0.00,,,0.00,meteohub,2013-07-15 08:37:00,
2013-07-15 02:42:00,79.3,57.4,30.00,NE,42,6.0,9.0,47,0.00,,,0.00,meteohub,2013-07-15 08:42:00,
2013-07-15 02:47:00,79.3,57.9,30.00,ENE,61,0.0,10.0,48,0.00,,,0.00,meteohub,2013-07-15 08:47:00,
2013-07-15 02:52:00,79.3,58.5,30.01,NNW,337,1.0,10.0,49,0.00,,,0.00,meteohub,2013-07-15 08:52:00,
2013-07-15 02:57:00,79.3,57.9,30.00,NNW,337,1.0,8.0,48,0.00,,,0.00,meteohub,2013-07-15 08:57:00,
2013-07-15 03:02:00,79.2,58.3,30.00,NNW,337,0.0,6.0,49,0.00,,,0.00,meteohub,2013-07-15 09:02:00,
2013-07-15 03:07:00,79.2,58.3,30.00,NNW,337,0.0,3.0,49,0.00,,,0.00,meteohub,2013-07-15 09:07:00,
2013-07-15 03:12:00,79.2,58.3,30.00,NNW,337,0.0,2.0,49,0.00,,,0.00,meteohub,2013-07-15 09:12:00,
2013-07-15 03:17:00,79.2,58.3,30.00,NNW,332,1.0,2.0,49,0.00,,,0.00,meteohub,2013-07-15 09:17:00,
2013-07-15 03:22:00,78.8,58.1,30.00,NW,319,5.0,5.0,49,0.00,,,0.00,meteohub,2013-07-15 09:22:00,
2013-07-15 03:27:00,78.6,57.9,30.00,NNW,338,5.0,7.0,49,0.00,,,0.00,meteohub,2013-07-15 09:27:00,
2013-07-15 03:32:00,78.4,58.3,30.01,NNW,344,4.0,9.0,50,0.00,,,0.00,meteohub,2013-07-15 09:32:00,
2013-07-15 03:37:00,78.4,58.3,30.01,North,5,6.0,10.0,50,0.00,,,0.00,meteohub,2013-07-15 09:37:00,
2013-07-15 03:42:00,78.3,58.6,30.01,NW,319,7.0,10.0,51,0.00,,,0.00,meteohub,2013-07-15 09:42:00,
2013-07-15 03:47:00,78.1,59.0,30.01,North,355,8.0,14.0,52,0.00,,,0.00,meteohub,2013-07-15 09:47:00,
2013-07-15 03:52:00,77.9,58.8,30.01,NNE,25,12.0,14.0,52,0.00,,,0.00,meteohub,2013-07-15 09:52:00,
2013-07-15 03:57:00,77.7,59.2,30.01,NNE,30,11.0,15.0,53,0.00,,,0.00,meteohub,2013-07-15 09:57:00,
2013-07-15 04:02:00,77.7,59.2,30.01,NNE,22,9.0,15.0,53,0.00,,,0.00,meteohub,2013-07-15 10:02:00,
2013-07-15 04:07:00,77.5,59.5,30.02,NNE,21,6.0,15.0,54,0.00,,,0.00,meteohub,2013-07-15 10:07:00,
2013-07-15 04:12:00,77.2,59.2,30.02,North,0,4.0,12.0,54,0.00,,,0.00,meteohub,2013-07-15 10:12:00,
2013-07-15 04:17:00,77.0,59.0,30.02,NNE,19,5.0,11.0,54,0.00,,,0.00,meteohub,2013-07-15 10:17:00,
2013-07-15 04:22:00,77.2,59.2,30.02,North,11,5.0,13.0,54,0.00,,,0.00,meteohub,2013-07-15 10:22:00,
2013-07-15 04:27:00,77.0,59.0,30.02,NNE,13,12.0,13.0,54,0.00,,,0.00,meteohub,2013-07-15 10:27:00,
2013-07-15 04:32:00,76.8,59.4,30.02,NE,37,6.0,13.0,55,0.00,,,0.00,meteohub,2013-07-15 10:32:00,
2013-07-15 04:37:00,76.8,59.4,30.02,NNE,28,9.0,14.0,55,0.00,,,0.00,meteohub,2013-07-15 10:37:00,
2013-07-15 04:42:00,76.6,59.7,30.02,North,5,3.0,14.0,56,0.00,,,0.00,meteohub,2013-07-15 10:42:00,
2013-07-15 04:47:00,76.3,59.9,30.02,NNW,333,8.0,12.0,57,0.00,,,0.00,meteohub,2013-07-15 10:47:00,
2013-07-15 04:52:00,76.1,60.3,30.02,North,0,6.0,12.0,58,0.00,,,0.00,meteohub,2013-07-15 10:52:00,
2013-07-15 04:57:00,75.7,60.4,30.02,NNE,14,5.0,11.0,59,0.00,,,0.00,meteohub,2013-07-15 10:57:00,
2013-07-15 05:02:00,75.6,60.3,30.02,North,351,5.0,11.0,59,0.00,,,0.00,meteohub,2013-07-15 11:02:00,
2013-07-15 05:07:00,75.6,60.6,30.02,North,9,5.0,11.0,60,0.00,,,0.00,meteohub,2013-07-15 11:07:00,
2013-07-15 05:12:00,75.4,61.0,30.02,NNW,334,6.0,11.0,61,0.00,,,0.00,meteohub,2013-07-15 11:12:00,
2013-07-15 05:17:00,75.2,61.3,30.03,NNW,339,5.0,12.0,62,0.00,,,0.00,meteohub,2013-07-15 11:17:00,
2013-07-15 05:22:00,75.0,61.2,30.03,North,349,5.0,12.0,62,0.00,,,0.00,meteohub,2013-07-15 11:22:00,
2013-07-15 05:27:00,75.0,61.2,30.03,NNW,335,6.0,12.0,62,0.00,,,0.00,meteohub,2013-07-15 11:27:00,
2013-07-15 05:32:00,75.0,61.2,30.03,North,355,3.0,9.0,62,0.00,,,0.00,meteohub,2013-07-15 11:32:00,
2013-07-15 05:37:00,75.0,61.2,30.03,NNE,15,6.0,9.0,62,0.00,,,0.00,meteohub,2013-07-15 11:37:00,
2013-07-15 05:42:00,75.0,61.2,30.03,North,5,5.0,9.0,62,0.00,,,0.00,meteohub,2013-07-15 11:42:00,
2013-07-15 05:47:00,74.8,61.3,30.03,North,355,4.0,9.0,63,0.00,,,0.00,meteohub,2013-07-15 11:47:00,
2013-07-15 05:52:00,74.7,61.2,30.03,North,355,2.0,8.0,63,0.00,,,0.00,meteohub,2013-07-15 11:52:00,
2013-07-15 05:57:00,74.7,61.2,30.04,North,355,4.0,7.0,63,0.00,,,0.00,meteohub,2013-07-15 11:57:00,
2013-07-15 06:02:00,74.7,61.2,30.03,NNW,344,3.0,6.0,63,0.00,,,0.00,meteohub,2013-07-15 12:02:00,
2013-07-15 06:07:00,74.7,61.2,30.04,NNW,344,0.0,5.0,63,0.00,,,0.00,meteohub,2013-07-15 12:07:00,
2013-07-15 06:12:00,74.7,61.2,30.04,NNW,344,3.0,5.0,63,0.00,,,0.00,meteohub,2013-07-15 12:12:00,
2013-07-15 06:17:00,74.5,61.9,30.04,NNW,344,1.0,4.0,65,0.00,,,0.00,meteohub,2013-07-15 12:17:00,
2013-07-15 06:22:00,74.1,61.5,30.04,NNW,344,0.0,4.0,65,0.00,,,0.00,meteohub,2013-07-15 12:22:00,
2013-07-15 06:27:00,74.1,61.5,30.04,NNW,344,2.0,4.0,65,0.00,,,0.00,meteohub,2013-07-15 12:27:00,
2013-07-15 06:32:00,74.3,61.3,30.04,NNW,344,4.0,4.0,64,0.00,,,0.00,meteohub,2013-07-15 12:32:00,
2013-07-15 06:37:00,74.1,61.2,30.04,NNW,344,0.0,5.0,64,0.00,,,0.00,meteohub,2013-07-15 12:37:00,
2013-07-15 06:42:00,74.3,60.8,30.04,NNW,344,1.0,5.0,63,0.00,,,0.00,meteohub,2013-07-15 12:42:00,
2013-07-15 06:47:00,74.5,60.6,30.04,NNW,344,0.0,5.0,62,0.00,,,0.00,meteohub,2013-07-15 12:47:00,
2013-07-15 06:52:00,74.5,60.6,30.04,NNW,344,2.0,4.0,62,0.00,,,0.00,meteohub,2013-07-15 12:52:00,
2013-07-15 06:57:00,74.5,60.6,30.04,NNW,344,4.0,5.0,62,0.00,,,0.00,meteohub,2013-07-15 12:57:00,
2013-07-15 07:02:00,74.1,60.8,30.05,NNW,344,0.0,5.0,63,0.00,,,0.00,meteohub,2013-07-15 13:02:00,
2013-07-15 07:07:00,74.1,60.8,30.05,NNW,344,1.0,5.0,63,0.00,,,0.00,meteohub,2013-07-15 13:07:00,
2013-07-15 07:13:00,74.1,60.8,30.05,WSW,254,4.0,4.0,63,0.00,,,0.00,meteohub,2013-07-15 13:13:00,
2013-07-15 07:19:00,73.9,61.3,30.06,SW,230,3.0,5.0,65,0.00,,,0.00,meteohub,2013-07-15 13:19:00,
2013-07-15 07:25:00,74.1,61.5,30.06,WNW,283,3.0,5.0,65,0.00,,,0.00,meteohub,2013-07-15 13:25:00,
2013-07-15 07:31:00,74.5,61.5,30.06,WNW,283,1.0,5.0,64,0.00,,,0.00,meteohub,2013-07-15 13:31:00,
2013-07-15 07:36:00,74.8,61.9,30.06,West,277,3.0,5.0,64,0.00,,,0.00,meteohub,2013-07-15 13:36:00,
2013-07-15 07:42:00,75.0,61.2,30.06,West,277,2.0,5.0,62,0.00,,,0.00,meteohub,2013-07-15 13:42:00,
2013-07-15 07:47:00,75.0,61.2,30.06,West,277,2.0,5.0,62,0.00,,,0.00,meteohub,2013-07-15 13:47:00,
2013-07-15 07:52:00,75.2,60.8,30.06,WNW,299,2.0,5.0,61,0.00,,,0.00,meteohub,2013-07-15 13:52:00,
2013-07-15 07:57:00,75.7,61.3,30.07,WSW,248,6.0,6.0,61,0.00,,,0.00,meteohub,2013-07-15 13:57:00,
2013-07-15 08:02:00,76.1,61.2,30.07,WSW,248,4.0,8.0,60,0.00,,,0.00,meteohub,2013-07-15 14:02:00,
2013-07-15 08:07:00,76.5,61.0,30.07,West,265,4.0,8.0,59,0.00,,,0.00,meteohub,2013-07-15 14:07:00,
2013-07-15 08:12:00,76.8,59.9,30.07,SSE,155,4.0,8.0,56,0.00,,,0.00,meteohub,2013-07-15 14:12:00,
2013-07-15 08:17:00,76.6,60.3,30.07,SSE,165,9.0,9.0,57,0.00,,,0.00,meteohub,2013-07-15 14:17:00,
2013-07-15 08:22:00,76.3,59.9,30.07,SSE,152,6.0,10.0,57,0.00,,,0.00,meteohub,2013-07-15 14:22:00,
2013-07-15 08:27:00,76.3,59.4,30.07,SE,142,5.0,12.0,56,0.00,,,0.00,meteohub,2013-07-15 14:27:00,
2013-07-15 08:32:00,75.9,59.5,30.07,SE,144,3.0,12.0,57,0.00,,,0.00,meteohub,2013-07-15 14:32:00,
2013-07-15 08:37:00,75.7,59.4,30.07,SE,141,9.0,14.0,57,0.00,,,0.00,meteohub,2013-07-15 14:37:00,
2013-07-15 08:42:00,75.6,59.2,30.07,SE,146,10.0,14.0,57,0.00,,,0.00,meteohub,2013-07-15 14:42:00,
2013-07-15 08:47:00,75.0,59.2,30.07,SSE,156,7.0,14.0,58,0.00,,,0.00,meteohub,2013-07-15 14:47:00,
2013-07-15 08:52:00,74.8,59.0,30.08,SE,146,13.0,14.0,58,0.00,,,0.00,meteohub,2013-07-15 14:52:00,
2013-07-15 08:58:00,74.8,59.5,30.08,SSE,159,13.0,15.0,59,0.00,,,0.00,meteohub,2013-07-15 14:58:00,
2013-07-15 09:04:00,74.8,60.1,30.08,SE,134,7.0,19.0,60,0.00,,,0.00,meteohub,2013-07-15 15:04:00,
2013-07-15 09:09:00,74.8,59.5,30.08,SSE,147,10.0,19.0,59,0.00,,,0.00,meteohub,2013-07-15 15:09:00,
2013-07-15 09:15:00,74.8,59.5,30.08,ESE,113,8.0,16.0,59,0.00,,,0.00,meteohub,2013-07-15 15:15:00,
2013-07-15 09:21:00,75.0,59.7,30.08,SSE,151,7.0,16.0,59,0.00,,,0.00,meteohub,2013-07-15 15:21:00,
2013-07-15 09:27:00,74.8,59.0,30.08,SSE,149,11.0,15.0,58,0.00,,,0.00,meteohub,2013-07-15 15:27:00,
2013-07-15 09:32:00,74.8,60.1,30.08,SE,128,8.0,14.0,60,0.00,,,0.00,meteohub,2013-07-15 15:32:00,
2013-07-15 09:37:00,74.8,59.5,30.08,SE,137,12.0,14.0,59,0.00,,,0.00,meteohub,2013-07-15 15:37:00,
2013-07-15 09:43:00,74.7,59.4,30.08,SE,134,9.0,14.0,59,0.00,,,0.00,meteohub,2013-07-15 15:43:00,
2013-07-15 09:49:00,74.8,59.5,30.08,SE,138,12.0,15.0,59,0.00,,,0.00,meteohub,2013-07-15 15:49:00,
2013-07-15 09:54:00,74.7,59.4,30.08,SE,136,10.0,15.0,59,0.00,,,0.00,meteohub,2013-07-15 15:54:00,
2013-07-15 10:00:00,74.8,59.5,30.08,SE,136,9.0,14.0,59,0.00,,,0.00,meteohub,2013-07-15 16:00:00,
2013-07-15 10:06:00,75.4,60.1,30.08,SSE,148,15.0,15.0,59,0.00,,,0.00,meteohub,2013-07-15 16:06:00,
2013-07-15 10:12:00,75.6,59.7,30.08,ESE,120,9.0,16.0,58,0.00,,,0.00,meteohub,2013-07-15 16:12:00,
2013-07-15 10:17:00,75.9,59.5,30.08,SE,126,11.0,16.0,57,0.00,,,0.00,meteohub,2013-07-15 16:17:00,
2013-07-15 10:22:00,76.1,59.7,30.08,SE,138,14.0,16.0,57,0.00,,,0.00,meteohub,2013-07-15 16:22:00,
2013-07-15 10:28:00,76.5,60.1,30.08,ESE,113,12.0,15.0,57,0.00,,,0.00,meteohub,2013-07-15 16:28:00,
2013-07-15 10:34:00,77.0,59.5,30.08,SSE,159,6.0,16.0,55,0.00,,,0.00,meteohub,2013-07-15 16:34:00,
2013-07-15 10:40:00,77.4,59.9,30.08,SSE,159,8.0,16.0,55,0.00,,,0.00,meteohub,2013-07-15 16:40:00,
2013-07-15 10:45:00,78.1,60.6,30.08,SSE,151,9.0,14.0,55,0.00,,,0.00,meteohub,2013-07-15 16:45:00,
2013-07-15 10:51:00,77.9,59.9,30.08,SSE,163,11.0,14.0,54,0.00,,,0.00,meteohub,2013-07-15 16:51:00,
2013-07-15 10:57:00,78.1,60.1,30.08,SE,135,10.0,14.0,54,0.00,,,0.00,meteohub,2013-07-15 16:57:00,
2013-07-15 11:03:00,78.1,59.5,30.08,SSE,148,9.0,14.0,53,0.00,,,0.00,meteohub,2013-07-15 17:03:00,
2013-07-15 11:08:00,78.4,59.4,30.08,SSE,150,9.0,14.0,52,0.00,,,0.00,meteohub,2013-07-15 17:08:00,
2013-07-15 11:14:00,79.2,59.5,30.08,SE,142,12.0,14.0,51,0.00,,,0.00,meteohub,2013-07-15 17:14:00,
2013-07-15 11:20:00,79.2,60.1,30.08,SSE,167,8.0,14.0,52,0.00,,,0.00,meteohub,2013-07-15 17:20:00,
2013-07-15 11:26:00,79.3,59.7,30.08,SE,139,12.0,15.0,51,0.00,,,0.00,meteohub,2013-07-15 17:26:00,
2013-07-15 11:32:00,79.2,60.1,30.08,SSE,161,7.0,16.0,52,0.00,,,0.00,meteohub,2013-07-15 17:32:00,
2013-07-15 11:37:00,79.2,59.5,30.08,SE,136,4.0,16.0,51,0.00,,,0.00,meteohub,2013-07-15 17:37:00,
2013-07-15 11:42:00,79.5,59.7,30.08,SSW,192,7.0,16.0,51,0.00,,,0.00,meteohub,2013-07-15 17:42:00,
2013-07-15 11:47:00,79.5,59.7,30.08,SE,124,8.0,16.0,51,0.00,,,0.00,meteohub,2013-07-15 17:47:00,
2013-07-15 11:52:00,79.5,59.7,30.08,SE,140,6.0,14.0,51,0.00,,,0.00,meteohub,2013-07-15 17:52:00,
2013-07-15 11:57:00,79.7,59.4,30.08,SSE,167,7.0,13.0,50,0.00,,,0.00,meteohub,2013-07-15 17:57:00,
2013-07-15 12:02:00,79.5,59.7,30.08,ESE,119,9.0,13.0,51,0.00,,,0.00,meteohub,2013-07-15 18:02:00,
2013-07-15 12:07:00,79.5,59.7,30.08,SE,144,6.0,12.0,51,0.00,,,0.00,meteohub,2013-07-15 18:07:00,
2013-07-15 12:12:00,79.5,59.7,30.08,SE,141,9.0,14.0,51,0.00,,,0.00,meteohub,2013-07-15 18:12:00,
2013-07-15 12:17:00,79.3,59.7,30.08,SSE,148,11.0,14.0,51,0.00,,,0.00,meteohub,2013-07-15 18:17:00,
2013-07-15 12:22:00,79.9,60.1,30.08,SE,146,10.0,13.0,51,0.00,,,0.00,meteohub,2013-07-15 18:22:00,
2013-07-15 12:27:00,80.2,59.9,30.09,SE,139,4.0,14.0,50,0.00,,,0.00,meteohub,2013-07-15 18:27:00,
2013-07-15 12:32:00,80.6,60.3,30.08,SSE,157,4.0,14.0,50,0.00,,,0.00,meteohub,2013-07-15 18:32:00,
2013-07-15 12:37:00,81.1,59.5,30.08,ESE,120,3.0,14.0,48,0.00,,,0.00,meteohub,2013-07-15 18:37:00,
2013-07-15 12:43:00,82.0,60.4,30.08,SE,141,8.0,12.0,48,0.00,,,0.00,meteohub,2013-07-15 18:43:00,
2013-07-15 12:49:00,81.9,60.3,30.08,SSE,153,8.0,12.0,48,0.00,,,0.00,meteohub,2013-07-15 18:49:00,
2013-07-15 12:54:00,82.2,59.9,30.08,SE,129,8.0,17.0,47,0.00,,,0.00,meteohub,2013-07-15 18:54:00,
2013-07-15 13:00:00,82.9,60.1,30.08,East,96,7.0,17.0,46,0.00,,,0.00,meteohub,2013-07-15 19:00:00,
2013-07-15 13:06:00,83.5,59.4,30.08,SE,140,5.0,14.0,44,0.00,,,0.00,meteohub,2013-07-15 19:06:00,
2013-07-15 13:12:00,84.4,60.1,30.07,South,189,4.0,13.0,44,0.00,,,0.00,meteohub,2013-07-15 19:12:00,
2013-07-15 13:17:00,84.7,60.4,30.07,ENE,60,8.0,11.0,44,0.00,,,0.00,meteohub,2013-07-15 19:17:00,
2013-07-15 13:22:00,84.4,60.1,30.07,East,92,5.0,15.0,44,0.00,,,0.00,meteohub,2013-07-15 19:22:00,
2013-07-15 13:28:00,85.3,60.3,30.06,SE,144,7.0,15.0,43,0.00,,,0.00,meteohub,2013-07-15 19:28:00,
2013-07-15 13:34:00,84.6,59.5,30.06,ESE,111,8.0,15.0,43,0.00,,,0.00,meteohub,2013-07-15 19:34:00,
2013-07-15 13:40:00,85.8,60.8,30.06,SE,140,6.0,15.0,43,0.00,,,0.00,meteohub,2013-07-15 19:40:00,
2013-07-15 13:46:00,86.0,60.3,30.06,East,86,7.0,15.0,42,0.00,,,0.00,meteohub,2013-07-15 19:46:00,
2013-07-15 13:52:00,85.5,59.7,30.06,North,351,6.0,15.0,42,0.00,,,0.00,meteohub,2013-07-15 19:52:00,
2013-07-15 13:57:00,85.3,59.5,30.06,East,85,6.0,14.0,42,0.00,,,0.00,meteohub,2013-07-15 19:57:00,
2013-07-15 14:02:00,85.5,59.7,30.05,ENE,78,9.0,15.0,42,0.00,,,0.00,meteohub,2013-07-15 20:02:00,
2013-07-15 14:07:00,86.7,60.3,30.05,East,88,5.0,15.0,41,0.00,,,0.00,meteohub,2013-07-15 20:07:00,
2013-07-15 14:12:00,86.5,59.4,30.05,ESE,123,5.0,13.0,40,0.00,,,0.00,meteohub,2013-07-15 20:12:00,
2013-07-15 14:17:00,84.6,59.5,30.05,East,86,7.0,11.0,43,0.00,,,0.00,meteohub,2013-07-15 20:17:00,
2013-07-15 14:22:00,84.7,59.7,30.05,ESE,123,8.0,11.0,43,0.00,,,0.00,meteohub,2013-07-15 20:22:00,
2013-07-15 14:29:00,84.7,59.7,30.05,East,84,7.0,15.0,43,0.00,,,0.00,meteohub,2013-07-15 20:29:00,
2013-07-15 14:34:00,84.4,59.4,30.05,ENE,70,12.0,15.0,43,0.00,,,0.00,meteohub,2013-07-15 20:34:00,
2013-07-15 14:40:00,84.4,59.4,30.04,East,94,15.0,16.0,43,0.00,,,0.00,meteohub,2013-07-15 20:40:00,
2013-07-15 14:45:00,84.2,59.4,30.04,ESE,119,11.0,16.0,43,0.00,,,0.00,meteohub,2013-07-15 20:45:00,
2013-07-15 14:50:00,84.4,59.4,30.04,East,96,14.0,20.0,43,0.00,,,0.00,meteohub,2013-07-15 20:50:00,
2013-07-15 14:56:00,84.0,59.2,30.04,ESE,105,11.0,20.0,43,0.00,,,0.00,meteohub,2013-07-15 20:56:00,
2013-07-15 15:02:00,84.4,59.4,30.04,East,94,14.0,20.0,43,0.00,,,0.00,meteohub,2013-07-15 21:02:00,
2013-07-15 15:07:00,83.8,59.0,30.04,East,88,16.0,21.0,43,0.00,,,0.00,meteohub,2013-07-15 21:07:00,
2013-07-15 15:13:00,83.7,59.4,30.04,ENE,77,9.0,21.0,44,0.00,,,0.00,meteohub,2013-07-15 21:13:00,
2013-07-15 15:19:00,83.1,59.5,30.04,East,94,14.0,21.0,45,0.00,,,0.00,meteohub,2013-07-15 21:19:00,
2013-07-15 15:25:00,82.6,59.0,30.04,ENE,65,18.0,18.0,45,0.00,,,0.00,meteohub,2013-07-15 21:25:00,
2013-07-15 15:31:00,82.0,58.6,30.04,ENE,59,19.0,22.0,45,0.00,,,0.00,meteohub,2013-07-15 21:31:00,
2013-07-15 15:36:00,81.7,58.8,30.04,ENE,65,13.0,24.0,46,0.00,,,0.00,meteohub,2013-07-15 21:36:00,
2013-07-15 15:42:00,81.1,58.5,30.04,East,91,13.0,24.0,46,0.00,,,0.00,meteohub,2013-07-15 21:42:00,
2013-07-15 15:47:00,80.8,58.1,30.04,East,98,16.0,24.0,46,0.00,,,0.00,meteohub,2013-07-15 21:47:00,
2013-07-15 15:52:00,80.4,57.7,30.04,ESE,121,13.0,22.0,46,0.00,,,0.00,meteohub,2013-07-15 21:52:00,
2013-07-15 15:57:00,80.1,57.4,30.04,East,96,16.0,22.0,46,0.00,,,0.00,meteohub,2013-07-15 21:57:00,
2013-07-15 16:02:00,79.5,57.6,30.04,ESE,115,16.0,24.0,47,0.00,,,0.00,meteohub,2013-07-15 22:02:00,
2013-07-15 16:07:00,79.5,57.6,30.04,ESE,121,15.0,24.0,47,0.00,,,0.00,meteohub,2013-07-15 22:07:00,
2013-07-15 16:12:00,79.3,57.4,30.04,East,97,11.0,24.0,47,0.00,,,0.00,meteohub,2013-07-15 22:12:00,
2013-07-15 16:17:00,79.9,57.9,30.04,ESE,103,11.0,22.0,47,0.00,,,0.00,meteohub,2013-07-15 22:17:00,
2013-07-15 16:23:00,79.5,57.6,30.04,East,90,10.0,22.0,47,0.00,,,0.00,meteohub,2013-07-15 22:23:00,
2013-07-15 16:28:00,80.4,57.7,30.04,ESE,116,12.0,22.0,46,0.00,,,0.00,meteohub,2013-07-15 22:28:00,
2013-07-15 16:34:00,80.1,58.1,30.04,ESE,117,16.0,19.0,47,0.00,,,0.00,meteohub,2013-07-15 22:34:00,
2013-07-15 16:40:00,80.2,57.6,30.04,SE,128,11.0,21.0,46,0.00,,,0.00,meteohub,2013-07-15 22:40:00,
2013-07-15 16:46:00,80.8,58.1,30.04,ESE,119,9.0,19.0,46,0.00,,,0.00,meteohub,2013-07-15 22:46:00,
2013-07-15 16:52:00,81.1,57.7,30.04,SE,134,10.0,18.0,45,0.00,,,0.00,meteohub,2013-07-15 22:52:00,
2013-07-15 16:57:00,81.1,58.5,30.04,NE,44,12.0,19.0,46,0.00,,,0.00,meteohub,2013-07-15 22:57:00,
2013-07-15 17:02:00,81.1,58.5,30.03,ENE,72,15.0,19.0,46,0.00,,,0.00,meteohub,2013-07-15 23:02:00,
2013-07-15 17:07:00,81.7,58.3,30.03,East,80,14.0,19.0,45,0.00,,,0.00,meteohub,2013-07-15 23:07:00,
2013-07-15 17:12:00,81.7,57.6,30.03,ENE,73,17.0,22.0,44,0.00,,,0.00,meteohub,2013-07-15 23:12:00,
2013-07-15 17:17:00,81.7,58.3,30.03,East,84,19.0,23.0,45,0.00,,,0.00,meteohub,2013-07-15 23:17:00,
2013-07-15 17:22:00,81.0,57.6,30.04,ENE,61,18.0,23.0,45,0.00,,,0.00,meteohub,2013-07-15 23:22:00,
2013-07-15 17:27:00,80.6,57.4,30.04,East,84,17.0,23.0,45,0.00,,,0.00,meteohub,2013-07-15 23:27:00,
2013-07-15 17:32:00,80.4,57.2,30.04,East,90,14.0,23.0,45,0.00,,,0.00,meteohub,2013-07-15 23:32:00,
2013-07-15 17:38:00,80.2,57.0,30.04,East,100,13.0,22.0,45,0.00,,,0.00,meteohub,2013-07-15 23:38:00,
2013-07-15 17:44:00,80.2,57.0,30.04,ENE,74,13.0,23.0,45,0.00,,,0.00,meteohub,2013-07-15 23:44:00,
2013-07-15 17:49:00,80.2,57.0,30.04,ESE,108,10.0,23.0,45,0.00,,,0.00,meteohub,2013-07-15 23:49:00,
2013-07-15 17:54:00,80.4,56.5,30.04,East,101,10.0,23.0,44,0.00,,,0.00,meteohub,2013-07-15 23:54:00,
2013-07-15 18:00:00,81.0,57.0,30.04,East,86,7.0,23.0,44,0.00,,,0.00,meteohub,2013-07-16 00:00:00,
2013-07-15 18:06:00,80.8,56.8,30.04,ESE,107,12.0,21.0,44,0.00,,,0.00,meteohub,2013-07-16 00:06:00,
2013-07-15 18:12:00,80.1,56.1,30.04,ESE,121,12.0,18.0,44,0.00,,,0.00,meteohub,2013-07-16 00:12:00,
2013-07-15 18:17:00,79.5,56.3,30.04,East,101,10.0,19.0,45,0.00,,,0.00,meteohub,2013-07-16 00:17:00,
2013-07-15 18:22:00,79.2,55.9,30.04,ENE,73,16.0,21.0,45,0.00,,,0.00,meteohub,2013-07-16 00:22:00,
2013-07-15 18:28:00,79.2,56.7,30.04,East,82,11.0,21.0,46,0.00,,,0.00,meteohub,2013-07-16 00:28:00,
2013-07-15 18:33:00,79.2,55.9,30.04,ENE,76,11.0,21.0,45,0.00,,,0.00,meteohub,2013-07-16 00:33:00,
2013-07-15 18:39:00,79.3,56.1,30.05,East,84,16.0,18.0,45,0.00,,,0.00,meteohub,2013-07-16 00:39:00,
2013-07-15 18:45:00,79.5,55.8,30.05,ENE,76,12.0,21.0,44,0.00,,,0.00,meteohub,2013-07-16 00:45:00,
2013-07-15 18:50:00,79.3,55.6,30.05,East,80,11.0,21.0,44,0.00,,,0.00,meteohub,2013-07-16 00:50:00,
2013-07-15 18:56:00,79.0,55.8,30.06,East,84,10.0,21.0,45,0.00,,,0.00,meteohub,2013-07-16 00:56:00,
2013-07-15 19:01:00,78.4,55.9,30.06,ENE,78,11.0,21.0,46,0.00,,,0.00,meteohub,2013-07-16 01:01:00,
2013-07-15 19:07:00,77.7,55.9,30.06,East,83,15.0,21.0,47,0.00,,,0.00,meteohub,2013-07-16 01:07:00,
2013-07-15 19:12:00,77.4,55.6,30.06,ENE,73,8.0,22.0,47,0.00,,,0.00,meteohub,2013-07-16 01:12:00,
2013-07-15 19:17:00,77.2,55.9,30.06,East,101,15.0,22.0,48,0.00,,,0.00,meteohub,2013-07-16 01:17:00,
2013-07-15 19:22:00,76.8,55.6,30.06,ENE,78,9.0,19.0,48,0.00,,,0.00,meteohub,2013-07-16 01:22:00,
2013-07-15 19:27:00,76.6,55.4,30.06,ENE,76,14.0,18.0,48,0.00,,,0.00,meteohub,2013-07-16 01:27:00,
2013-07-15 19:32:00,76.3,55.2,30.07,ENE,76,16.0,21.0,48,0.00,,,0.00,meteohub,2013-07-16 01:32:00,
2013-07-15 19:38:00,75.9,54.9,30.07,ESE,103,11.0,21.0,48,0.00,,,0.00,meteohub,2013-07-16 01:38:00,
2013-07-15 19:44:00,75.6,55.0,30.08,ENE,77,11.0,23.0,49,0.00,,,0.00,meteohub,2013-07-16 01:44:00,
2013-07-15 19:50:00,75.6,55.0,30.08,East,85,10.0,23.0,49,0.00,,,0.00,meteohub,2013-07-16 01:50:00,
2013-07-15 19:56:00,75.4,55.4,30.08,East,79,10.0,17.0,50,0.00,,,0.00,meteohub,2013-07-16 01:56:00,
2013-07-15 20:01:00,75.4,55.4,30.09,East,84,8.0,16.0,50,0.00,,,0.00,meteohub,2013-07-16 02:01:00,
2013-07-15 20:07:00,75.0,55.0,30.09,East,94,9.0,16.0,50,0.00,,,0.00,meteohub,2013-07-16 02:07:00,
2013-07-15 20:13:00,74.8,55.6,30.09,East,95,9.0,15.0,51,0.00,,,0.00,meteohub,2013-07-16 02:13:00,
2013-07-15 20:19:00,74.7,55.4,30.09,ESE,103,4.0,17.0,51,0.00,,,0.00,meteohub,2013-07-16 02:19:00,
2013-07-15 20:24:00,74.7,55.4,30.09,East,82,7.0,17.0,51,0.00,,,0.00,meteohub,2013-07-16 02:24:00,
2013-07-15 20:30:00,74.7,55.9,30.09,East,87,6.0,17.0,52,0.00,,,0.00,meteohub,2013-07-16 02:30:00,
2013-07-15 20:36:00,74.5,55.8,30.09,ESE,115,5.0,14.0,52,0.00,,,0.00,meteohub,2013-07-16 02:36:00,
2013-07-15 20:42:00,74.5,56.3,30.09,ESE,107,4.0,14.0,53,0.00,,,0.00,meteohub,2013-07-16 02:42:00,
2013-07-15 20:47:00,73.9,57.7,30.10,ESE,105,8.0,14.0,57,0.00,,,0.00,meteohub,2013-07-16 02:47:00,
2013-07-15 20:53:00,73.2,56.1,30.10,ESE,104,8.0,13.0,55,0.00,,,0.00,meteohub,2013-07-16 02:53:00,
2013-07-15 20:59:00,73.2,55.6,30.10,SE,124,6.0,12.0,54,0.00,,,0.00,meteohub,2013-07-16 02:59:00,
2013-07-15 21:05:00,73.2,55.6,30.10,ESE,118,8.0,14.0,54,0.00,,,0.00,meteohub,2013-07-16 03:05:00,
2013-07-15 21:11:00,73.2,55.6,30.10,ESE,111,7.0,14.0,54,0.00,,,0.00,meteohub,2013-07-16 03:11:00,
2013-07-15 21:17:00,73.2,55.0,30.10,ESE,105,10.0,13.0,53,0.00,,,0.00,meteohub,2013-07-16 03:17:00,
2013-07-15 21:22:00,73.2,55.0,30.11,SE,133,6.0,13.0,53,0.00,,,0.00,meteohub,2013-07-16 03:22:00,
2013-07-15 21:27:00,73.2,55.0,30.11,ESE,123,8.0,15.0,53,0.00,,,0.00,meteohub,2013-07-16 03:27:00,
2013-07-15 21:32:00,73.0,54.3,30.11,SE,124,5.0,15.0,52,0.00,,,0.00,meteohub,2013-07-16 03:32:00,
2013-07-15 21:37:00,73.2,54.5,30.12,ESE,120,8.0,15.0,52,0.00,,,0.00,meteohub,2013-07-16 03:37:00,
2013-07-15 21:43:00,73.0,54.3,30.12,SE,129,7.0,12.0,52,0.00,,,0.00,meteohub,2013-07-16 03:43:00,
2013-07-15 21:48:00,73.0,54.3,30.12,ESE,110,10.0,12.0,52,0.00,,,0.00,meteohub,2013-07-16 03:48:00,
2013-07-15 21:54:00,73.0,53.8,30.12,ESE,112,7.0,12.0,51,0.00,,,0.00,meteohub,2013-07-16 03:54:00,
2013-07-15 22:00:00,73.2,54.0,30.13,ESE,119,5.0,12.0,51,0.00,,,0.00,meteohub,2013-07-16 04:00:00,
2013-07-15 22:01:00,73.2,54.0,30.13,ESE,111,5.0,14.0,51,0.00,,,0.00,meteohub,2013-07-16 04:01:00,
2013-07-15 22:02:00,73.2,54.0,30.13,ESE,111,7.0,14.0,51,0.00,,,0.00,meteohub,2013-07-16 04:02:00,
2013-07-15 22:05:00,73.2,53.4,30.13,ESE,119,4.0,14.0,50,0.00,,,0.00,meteohub,2013-07-16 04:05:00,
2013-07-15 22:07:00,73.2,53.4,30.13,ESE,109,11.0,14.0,50,0.00,,,0.00,meteohub,2013-07-16 04:07:00,
2013-07-15 22:12:00,73.2,54.0,30.13,ESE,123,5.0,14.0,51,0.00,,,0.00,meteohub,2013-07-16 04:12:00,
2013-07-15 22:17:00,73.2,53.4,30.13,ESE,119,12.0,13.0,50,0.00,,,0.00,meteohub,2013-07-16 04:17:00,
2013-07-15 22:22:00,73.0,53.2,30.13,East,98,6.0,13.0,50,0.00,,,0.00,meteohub,2013-07-16 04:22:00,
2013-07-15 22:27:00,73.0,52.7,30.13,SE,125,6.0,13.0,49,0.00,,,0.00,meteohub,2013-07-16 04:27:00,
2013-07-15 22:32:00,73.0,52.2,30.14,ESE,122,4.0,15.0,48,0.00,,,0.00,meteohub,2013-07-16 04:32:00,
2013-07-15 22:37:00,72.9,52.0,30.14,SE,126,8.0,15.0,48,0.00,,,0.00,meteohub,2013-07-16 04:37:00,
2013-07-15 22:42:00,72.9,52.0,30.14,ESE,119,8.0,15.0,48,0.00,,,0.00,meteohub,2013-07-16 04:42:00,
2013-07-15 22:47:00,72.9,52.0,30.14,ESE,103,8.0,15.0,48,0.00,,,0.00,meteohub,2013-07-16 04:47:00,
2013-07-15 22:52:00,72.7,51.8,30.14,ESE,116,4.0,15.0,48,0.00,,,0.00,meteohub,2013-07-16 04:52:00,
2013-07-15 22:57:00,72.7,51.8,30.14,SE,130,12.0,15.0,48,0.00,,,0.00,meteohub,2013-07-16 04:57:00,
2013-07-15 23:02:00,72.7,51.8,30.14,ESE,123,9.0,15.0,48,0.00,,,0.00,meteohub,2013-07-16 05:02:00,
2013-07-15 23:07:00,72.5,52.3,30.14,ESE,113,5.0,15.0,49,0.00,,,0.00,meteohub,2013-07-16 05:07:00,
2013-07-15 23:12:00,72.3,52.2,30.14,SE,130,7.0,15.0,49,0.00,,,0.00,meteohub,2013-07-16 05:12:00,
2013-07-15 23:17:00,72.1,53.6,30.14,ESE,112,10.0,12.0,52,0.00,,,0.00,meteohub,2013-07-16 05:17:00,
2013-07-15 23:22:00,71.8,53.8,30.14,SE,130,11.0,15.0,53,0.00,,,0.00,meteohub,2013-07-16 05:22:00,
2013-07-15 23:27:00,71.2,53.8,30.14,SE,130,6.0,16.0,54,0.00,,,0.00,meteohub,2013-07-16 05:27:00,
2013-07-15 23:32:00,71.1,54.1,30.14,SSE,153,12.0,16.0,55,0.00,,,0.00,meteohub,2013-07-16 05:32:00,
2013-07-15 23:37:00,71.1,55.6,30.15,SE,128,9.0,16.0,58,0.00,,,0.00,meteohub,2013-07-16 05:37:00,
2013-07-15 23:42:00,70.5,55.6,30.15,SE,133,8.0,14.0,59,0.00,,,0.00,meteohub,2013-07-16 05:42:00,
2013-07-15 23:47:00,70.3,55.4,30.15,SE,133,9.0,14.0,59,0.00,,,0.00,meteohub,2013-07-16 05:47:00,
2013-07-15 23:52:00,70.2,54.7,30.15,SE,128,5.0,12.0,58,0.00,,,0.00,meteohub,2013-07-16 05:52:00,
2013-07-15 23:57:00,70.2,55.2,30.15,SE,132,4.0,12.0,59,0.00,,,0.00,meteohub,2013-07-16 05:57:00,